Погода в Владимире

Погода в Владимире : погода сейчас, прогноз погоды и архив. Всё, что Вы хотите узнать о погоде в Владимире!

Хотите узнать прогноз погоды в Владимире? Тогда Вам сюда: Погода в Владимире

Поиск расширенной информации на нашем сайте:

Полезная информация:

Другие новости

Новости СМИ2

Главная страница сайта

Новости сайта

03.07.2017

Напоминаем, что на нашем специализированном сайте Метеоцентр.Азия вы можете получить высокодетализированные автоматические прогнозы погоды по пунктам России, СНГ и мира в авиационном формате (включающие направление и скорость ветра, видимость, явления погоды, количество и форму облачности, нижнюю и верхнюю границу облачности).

Рекомендуем:

Погода в Владимире - сегодня

Время (UTC), дата Ветер
(°,м/с) 
Видим.   Явления Облачность Т
(°С)
Тd
(°С)
f(%) Тe
(°С)
Pmin
(гПа)
dP
(гПа)
Po
(мм)
O2
(г/м3)
Тmin Tmax R s Состояние
почвы
09 15.09.19 260 (З) 10 км    8/8 800 м кучево-дожд. 
[Cb calv]
+11.6 +5.1 64 +11  1013.8  -0.3  745  287           
12 15.09.19 270 (З) 10 км    8/8 1000 м верхняя 
[Cu med, cong|Ci fib]
+12.9 +4 55 +13  1012.6  -1.1  744  286           
15 15.09.19 240 (ЮЗ) 10 км    10/3 600 м средняя 
[Sc|Ac und]
+10.6 +2.9 59 +10  1011  -1.7  743  288    +13       
18 15.09.19 210 (ЮЗ) 10 км    10/8 1200 м средняя 
[Sc|Ac und]
+9.7 +3.6 66 +10  1008.8  -2.2  741  288           
21 15.09.19 200 (Ю) 4000 м  слаб. ливневой дождь  10/8 480 м кучево-дожд., средняя 
[Cb cap|Ac und]
+7.5 +6.1 91 +6  1004.6  -4.3  738  288           
00 16.09.19 210 (ЮЗ) 5{10}  4000 м  слаб. ливневой дождь  10/10 240 м кучево-дожд. 
[Cb cap]
+8.6 +7.2 91 +7  1000.7  -3.7  735  286           
03 16.09.19 220 (ЮЗ) 6-10{10}  4000 м  слаб. ливневой дождь  10/10 180 м кучево-дожд. 
[Cb cap]
+9.2 +7.9 92 +7  998.2  -2.4  733  284  +7.3      мокрая 
06 16.09.19 220 (ЮЗ) 5{10}  4000 м  в посл. час ливневой дождь  10/10 180 м кучево-дожд. 
[Cb calv]
+9.9 +8.4 90 +9  996.7  -1.4  732  283           
09 16.09.19 240 (ЮЗ) 5{10}  10 км  в посл. час ливневой дождь  9/9 400 м кучево-дожд. 
[Cb calv]
+11.8 +9.1 84 +11  995.7  -0.8  732  281           
12 16.09.19 250 (З) 10 км  {ливн. осадки}  9/9 600 м кучево-дожд. 
[Cb calv]
+13.9 +5.8 58 +13  995  -0.6  731  279           
15 16.09.19 210 (ЮЗ) 3{14}  10 км  {ливн. осадки}  6/6 600 м кучево-дожд. 
[Cb calv]
+11.6 +7.7 77 +11  996.2  732  282    +15.1     
18 16.09.19 220 (ЮЗ) 10 км  {ливн. осадки}  6/6 600 м кучево-дожд. 
[Cb calv]
+10 +6.7 80 +9  996.5  0.2  732  283           
21 16.09.19 220 (ЮЗ) 10 км    8/8 600 м 
[Sc]
+9.1 +6.8 85 +7  995.5  -1.1  731  284           
00 17.09.19 220 (ЮЗ) 10 км    10/10 840 м 
[Sc]
+9.4 +6.9 84 +8  994.9  -0.5  731  284           
03 17.09.19 220 (ЮЗ) 10 км    10/10 360 м 
[Sc]
+8.7 +6.3 85 +7  995.2  0.2  731  284  +8.7    0.0    влажная 
06 17.09.19 230 (ЮЗ) 10 км    9/9 630 м 
[Sc]
+10 +6.2 77 +9  995.1  0.1  731  283  +8.6         
09 17.09.19 240 (ЮЗ) 5{11}  10 км  в посл. час ливневой дождь  8/8 600 м кучево-дожд. 
[Cb cap]
+11.4 +8 80 +10  995.2  0.2  731  281           
12 17.09.19 230 (ЮЗ) 6{13}  10 км  {ливн. осадки}  8/8 600 м кучево-дожд. 
[Cb cap]
+12.6 +6 64 +12  995.4  0.3  731  281           
15 17.09.19 240 (ЮЗ) 3{11}  10 км  в посл. час ливневой дождь  8/8 600 м кучево-дожд. 
[Cb cap]
+8.4 +6.5 88 +8  996.8  732  285    +12.8     
18 17.09.19 230 (ЮЗ) 10 км  {ливн. осадки}  6/6 600 м кучево-дожд. 
[Cb cap]
+8 +6.1 88 +7  997.6  0.7  733  286           
21 17.09.19 220 (ЮЗ) 10 км    6/6 600 м 
[Sc]
+7.8 +6.1 89 +7  997.4  -0.2  733  286           
00 18.09.19 250 (З) 10 км    6/6 600 м 
[Sc]
+7.1 +5.1 87 +6  997.9  0.4  733  287           
03 18.09.19 250 (З) 10 км    10/8 360 м средняя 
[Sc|Ac As]
+6.5 +4.1 85 +5  998.4  0.5  733  288  +6.5    0.0    влажная 
06 18.09.19 240 (ЮЗ) 10 км    10/8 240 м средняя 
[Sc|Ac und]
+8.1 +5.6 84 +7  998.4  0.1  733  286  +6.5         
09 18.09.19 220 (ЮЗ) 10 км    9/8 600 м кучево-дожд., средняя 
[Cb calv|Ac trans]
+11.4 +5.3 66 +11  998.2  733  283           
Время (UTC), дата Ветер
(°,м/с) 
Видим.   Явления Облачность Т
(°С)
Тd
(°С)
f(%) Тe
(°С)
Pmin
(гПа)
dP
(гПа)
Po
(мм)
O2
(г/м3)
Тmin Tmax R s Состояние
почвы

Для получения пояснительной информации подведите курсор к названию столбца.

ПОГОДА в Владимире - архив

Всё, что Вы хотите узнать о погоде в Владимире - удобно и подробно!

Выберите нужную дату (начиная с 1 января 2018* года) и нажмите кнопку "Найти".
Будут отображены архивные сводки погоды по пункту Владимир, начиная с указанной даты.


Отображать данные в формате CSV (для использования в таблицах Excel)


Внимание! Наш архив погоды предназначен исключительно для личного некоммерческого использования в познавательных целях. Если Вам необходимы официальные справки о состоянии погоды (для производственных, юридических, коммерческих и т.п. целей), обращайтесь в органы Росгидромета.

*Примечание: данная дата относится к архиву по метеостанциям СССР (Россия, СНГ, Балтия).
Архив по метеостанциям Зарубежной Европы и Азии (кроме Китая) хранится 10 дней, по другим регионам земного шара (Китай, Африка, Америка, Австралия, Океания) - 1 день.

Владимир - район местоположения метеостанции


Название, широта, долгота, высота метеостанции:
Владимир 56.1°ш. 40.3°д. 172 м над ур. моря [Российская Федерация]

Дополнительная информация

В oтличие oт бoльшинства пoгoдных сайтoв мы публикуем пoдрoбную метеoинфoрмацию в детальнoм прoфессиoнальнoм фoрмате.

Характеристики температуры и влажнoсти вoздуха измеряются на высoте 2 м в тени вдали oт зданий и деревьев.
Скoрoсть ветра измеряется на высoте 10 м (на урoвне рoста челoвека скoрoсть ветра ниже в 1.5-2 раза). Если метеoстанция нахoдится в гoрoде или в лесу, тo скoрoсть ветра занижена на 2-4 м/с пo сравнению с oткрытым местoм. Скoрoсть ветра над акватoриями крупных рек и oзёр, а также на вершинах хoлмoв на 2-5 м/с выше, чем в oбычных услoвиях.
Атмoсфернoе давление в разных тoчках местнoсти мoжет значительнo oтличаться oт давления на метеoстанции, в зависимoсти oт услoвий рельефа (при пoдъёме на 10 м давление пoнижается примернo на 1 мм рт.ст.).